Regional Weather Roundup
Issued by NWS Charleston, SC

Current Version | Previous Version | Graphics & Text | Print | Product List | Glossary On
Versions: 1 2 3 4 5 6 7 8 9 10 11 12 13 14 15 16 17 18 19 20 21 22 23 24 25 26 27 28 29 30 31 32 33 34 35 36 37 38 39 40 41 42 43 44 45 46 47 48 49 50
724 ASUS42 KCHS 241612 RWRCHS REGIONAL WEATHER ROUNDUP NATIONAL WEATHER SERVICE CHARLESTON SC 1200 PM EDT MON APR 24 2017 NOTE: "FAIR" INDICATES FEW OR NO CLOUDS BELOW 12,000 FEET WITH NO SIGNIFICANT WEATHER AND/OR OBSTRUCTIONS TO VISIBILITY. NOT ALL STATIONS ARE QUALITY CONTROLLED. USE DATA WITH CAUTION... ESPECIALLY DEWPOINT OBSERVATIONS. SCZ027-030-031-034>040-042>050-241700- ...SOUTHEAST SOUTH CAROLINA... CITY SKY/WX TMP DP RH WIND PRES REMARKS N CHARLESTON CLOUDY 76 68 76 SE10 29.66F WATERFRONT PRK N/A 72 68 87 S12 29.66F JOHNS ISLAND FAIR 77 68 73 SE8 29.67F PINOPOLIS N/A 68 66 94 E12 29.61 MONCKS CORNER PTSUNNY 70 68 94 E7 29.68F SUMMERVILLE CLOUDY 72 68 88 CALM 29.67F BEAUFORT MCAS CLOUDY 76 67 73 SW15 29.67S BEAUFORT ARPT CLOUDY 73 64 73 SW10 29.67S HILTON HEAD IS PTSUNNY 73 64 73 SW14 29.69R WALTERBORO CLOUDY 70 68 94 S7 29.67F ALLENDALE CLOUDY 70 66 88 CALM 29.68S ...SOUTHERN MIDLANDS AND PEE DEE... CITY SKY/WX TMP DP RH WIND PRES REMARKS GEORGETOWN TSTM 63 63 100 SE3 29.72S VSB 1 KINGSTREE RAIN 61 59 94 CALM 29.73F ORANGEBURG CLOUDY 64 61 90 NE10 29.69F BARNWELL CLOUDY 66 64 94 CALM 29.70S AIKEN TSTM 54 54 100 W3G17 29.78R MANNING PTSUNNY 64 63 94 E7 29.71F COLUMBIA CLOUDY 64 57 78 NE12G21 29.72R SUMTER CLOUDY 63 61 94 NE16G22 29.70F FLORENCE RAIN 58 58 100 N15 29.76F FOG MYRTLE BEACH PTSUNNY 72 68 88 S8 29.74S N MYRTLE BEACH CLOUDY 71 68 90 E14G20 29.73S $$ GAZ063-065-086>088-099>101-113>116-118-119-134>141-150-241700- ...SOUTHEAST GEORGIA... CITY SKY/WX TMP DP RH WIND PRES REMARKS SAVANNAH ARPT PTSUNNY 73 60 63 W8 29.69F HUNTER AAF MOSUNNY 74 66 75 SW13 29.66F FORT STEWART MOSUNNY 73 53 49 W15 29.69S STATESBORO CLOUDY 69 62 77 W9 29.70F SYLVANIA CLOUDY N/A N/A N/A W3 29.71S CLAXTON FAIR 70 61 71 S9G16 29.71F ...CSRA...CENTRAL AND FAR SOUTHEAST GEORGIA... CITY SKY/WX TMP DP RH WIND PRES REMARKS THOMSON CLOUDY 57 54 91 E8 29.79F AUGUSTA-BUSH CLOUDY 66 61 84 N10 29.71R AUGUSTA-DANIEL CLOUDY 62 57 83 N9 29.73R SWAINSBORO CLOUDY 63 59 88 W8 29.73S VIDALIA PTSUNNY 70 54 56 W5 29.72F EASTMAN CLOUDY 65 46 49 W6 29.76S HAZLEHURST PTSUNNY 69 56 63 SW10G16 29.73S ALMA CLOUDY 68 54 60 W10 29.73S WAYCROSS CLOUDY 71 56 60 W13 29.74S JESUP CLOUDY 73 46 38 W14 29.72F BAXLEY CLOUDY 68 59 73 W8 29.73S BRUNSWICK PTSUNNY 73 59 60 W12G17 29.72S SAINT SIMONS PTSUNNY 73 55 53 W9 29.72S $$ SCZ027-028-034-036>038-045-046-048>050-GAZ119-141-241700- ...LAKE AND SUPPLEMENTAL COASTAL OBSERVATIONS... STATION/POSITION TIME TEMP WIND PRES WAVE SWELL AIR SEA DIR/SP/G HT/PER HT/PER/DIR (UTC) (F) (DEG/KT/KT) (MB) (FT/S) (FT/S/D) WINYAH BAY 1445 72 140/ 8 1006.0 LAKE MURRAY 1520 59 10/ 2/ 5 1006.8F ACE BASIN NERRS 1445 76 140/ 1 1005.0 FORT PULASKI 1548 70 75 290/ 14/ 17 1005.5S SAPELO ISLAND 1500 70 260/ 14 1006.0 $$ ANZ835-935-AMZ111-154-330-350-352-354-370-450-454-472-241700- ...C-MAN AND BUOY OBSERVATIONS... STATION/POSITION TIME TEMP WIND PRES WAVE SWELL AIR SEA DIR/SP/G HT/PER HT/PER/DIR (UTC) (F) (DEG/KT/KT) (MB) (FT/S) (FT/S/D) BUOY 41004 1550 69 74 220/ 19/ 25 1005.5S 7/ 7 2/ 90/12 BUOY 41008 1450 68 72 250/ 16/ 19 1005.3 4/ 8 3/110/ 8 FOLLY BEACH CMAN 1500 72 150/ 18/ 20 1005.9S CAPERS NEARSHORE 1508 69 72 150/ 19/ 25 1005.0F FRIPP NEARSHORE 1508 72 73 220/ 10/ 14 1004.8F STATION/POSITION TIME TEMP WIND PRES WAVE SWELL AIR SEA DIR/SP/G HT/PER HT/PER/DIR (UTC) (F) (DEG/KT/KT) (MB) (FT/S) (FT/S/D) 5E ST. MARYS GA 1530 73 N/A 3/13 2/ 80/13 FRYING PAN BUOY 1550 74 75 140/ 19/ 27 1006.5F 7/ 7 2/100/11 BUOY 41025 1550 77 79 130/ 21/ 27 1010.7F 7/11 5/ 50/11 CAPE LOOKOUT NC 1500 67 140/ 12/ 13 1010.6S BUOY 41002 1550 71 75 110/ 25/ 35 1009.4R 8/ 6 2/ 50/11 BUOY 41010 1550 76 78 270/ 12/ 17 1006.5S 7/ 8 7/130/ 8 ST AUGUSTINE FL 1600 74 75 260/ 10/ 15 1007.5F $$

USA.gov is the U.S. government's official web portal to all federal, state and local government web resources and services.